Regional Weather Roundup
Issued by NWS

Home | Current Version | Previous Version | Text Only | Print | Product List | Glossary On
Versions: 1 2 3 4 5 6 7 8 9 10 11 12 13 14 15 16 17 18 19 20 21 22 23 24 25 26 27 28 29 30 31 32 33 34 35 36 37 38 39 40 41 42 43 44 45 46 47 48 49 50
000
ASUS42 KTBW 221910
RWRFL
FLORIDA REGIONAL WEATHER ROUNDUP
NATIONAL WEATHER SERVICE TAMPA BAY RUSKIN FL
300 PM EDT TUE JUL 22 2014

NOTE: "FAIR" INDICATES FEW OR NO CLOUDS BELOW 12,000 FEET WITH NO
SIGNIFICANT WEATHER AND/OR OBSTRUCTIONS TO VISIBILITY.


FLZ001>010-012>015-112-114-115-222000-
PANHANDLE FLORIDA

CITY           SKY/WX    TMP DP  RH WIND       PRES   REMARKS
PENSACOLA      MOSUNNY   84  73  69 SE14      30.03F
PENSACOLA NAS  PTSUNNY   86  75  69 S12       30.02F HX  95
MILTON NAS     TSTM      76  70  82 S9        30.05R
CRESTVIEW      PTSUNNY   82  74  76 E13G18    30.06S THUNDER
DUKE FIELD     PTSUNNY   84  78  82 NE12G20   30.05F THUNDER HX  95
VALPARAISO     PTSUNNY   86  75  70 S12       30.05R HX  95
MARY ESTHER    MOSUNNY   85  73  65 S10       30.04S
TRI COUNTY     LGT RAIN  83  74  74 CALM      30.06F
PANAMA CITY    MOCLDY    86  72  62 S14       30.05S
APALACHICOLA   SUNNY     88  72  58 S8        30.05F

STATION/POSITION SKY/WX   TEMP    WIND        PRES    WAVE   SWELL
                          AIR SEA DIR/SP/G            HT/PER HT/PER
                          (F)     (DEG/KT/KT) (MB)    (FT/S) (FT/S)
30.1N   87.6W              82 83  180/  8/ 10 1016.7F   1/ 4
29.2N   88.2W              83 87  130/  4/  6 1017.7R
28.8N   86.0W              82 84  200/  6/  8 1017.9F   1/ 4
PANAMA CITY BEAC           82 82  220/  6/ 11 1017.7F
CAPE SAN BLAS    NOT AVBL
TOWER C                    83     190/  3/  3 1018.0F
28.5N   84.5W              84 89  300/  2/  2 1018.0F   1/ 4

$$
FLZ011-016>038-118-127-128-134-139-239-222000-
NORTH FLORIDA

CITY           SKY/WX    TMP DP  RH WIND       PRES   REMARKS
MARIANNA       MOSUNNY   87  70  56 E6        30.05F
TALLAHASSEE    PTSUNNY   89  69  51 S9        30.05F
PERRY          PTSUNNY   84  70  61 W6        30.06S
CROSS CITY       N/A     85  73  67 SW6       30.04F
GAINESVILLE    SUNNY     90  71  53 VRB5      30.04F HX  96
MAYPORT NAS    PTSUNNY   86  75  69 NE14      30.07F HX  95
JACKSONVILLE   PTSUNNY   88  72  58 E9        30.05F
JAX NAS        PTSUNNY   91  72  53 NE8       30.06F HX  98
JAX CRAIG      MOSUNNY   87  74  64 E13       30.07S HX  95
JAX CECIL      PTSUNNY   82  75  78 SW12      30.06S
FERNANDINA BEA FAIR      86  73  66 NE12      30.05F
ST AUGUSTINE   MOSUNNY   89  75  63 E13       30.07F HX  99

STATION/POSITION SKY/WX   TEMP    WIND        PRES    WAVE   SWELL
                          AIR SEA DIR/SP/G            HT/PER HT/PER
                          (F)     (DEG/KT/KT) (MB)    (FT/S) (FT/S)
SHELL POINT                83     140/  5/  6   N/A
KEATON BEACH               82     240/  7/  8 1018.0F
CEDAR KEY                  84     240/  7/  9 1018.1F
FERNANDINA                 84 84   90/  6/ 11 1017.8F
30.7N   81.3W                 85                N/A     2/ 7
MAYPORT                    82 86   70/ 12/ 14   N/A
31.4N   80.9W              81 85   80/  6/  8 1018.6F   2/ 7   2/ 7
ST AUGUSTINE               81      50/ 11/ 12 1018.9F

$$
FLZ040-043>046-052-053-057-058-063-144-222000-
INTERIOR CENTRAL FLORIDA

CITY           SKY/WX    TMP DP  RH WIND       PRES   REMARKS
OCALA          PTSUNNY   90  70  51 CALM      30.05F HX  95
LEESBURG       SUNNY     91  70  49 S6        30.05F HX  96
SANFORD        MOSUNNY   90  74  59 N6        30.04F HX  99
ORLANDO EXEC   MOSUNNY   92  72  51 CALM      30.04F HX  99
ORLANDO INTL   PTSUNNY   91  73  55 VRB5      30.04F HX  99
KISSIMMEE      PTSUNNY   90  73  58 W5        30.05F HX  98
WINTER HAVEN   SUNNY     92  72  51 NE5       30.06F HX  99
LAKELAND       MOSUNNY   91  72  52 CALM      30.05F HX  98
BARTOW         PTSUNNY   90  70  51 W5        30.06S HX  95
OKEECHOBEE     PTSUNNY   88  73  62 MISG      30.04F THUNDER HX  96

$$
FLZ041-047-054-059-064-141-147-222000-
EAST CENTRAL FLORIDA

CITY           SKY/WX    TMP DP  RH WIND       PRES   REMARKS
ORMOND BEACH   MOSUNNY   84  75  74 E9        30.07S
DAYTONA BEACH  LGT RAIN  86  77  74 NE9       30.06S HX  97
DELAND         PTCLDY    88  75  66 CALM      30.06S HX  97
NEW SMYRNA BEA MOSUNNY   86  77  74 E7        30.07F HX  97
JFK SPACE CTR  PTSUNNY   88  81  81 E8        30.05S HX 106
TITUSVILLE     PTSUNNY   82  77  83 E7        30.06R FOG
CAPE CANAVERAL LGT RAIN  82  78  86 SE5       30.05S
PATRICK AFB    PTSUNNY   87  77  72 E12       30.04F HX  98
MELBOURNE      HVY RAIN  81  77  88 S14       30.05S FOG
VERO BEACH     PTSUNNY   77  77 100 SE7       30.06R
FT PIERCE      LGT RAIN  77  73  87 SE5       30.06S
STUART         PTSUNNY   86  73  66 W13       30.07R

STATION/POSITION SKY/WX   TEMP    WIND        PRES    WAVE   SWELL
                          AIR SEA DIR/SP/G            HT/PER HT/PER
                          (F)     (DEG/KT/KT) (MB)    (FT/S) (FT/S)
28.5N   80.2W              83 85  120/  4/  6 1018.3F
28.9N   78.5W              80 83  180/ 17/ 19 1018.8R   5/ 6   2/ 8
TRIDENT PIER               85 87   80/  7/ 10 1017.2S
28.4N   80.5W                 85                N/A     2/ 8
27.6N   80.2W                 84                N/A     2/ 8

$$
FLZ050-056-061-142-242-148-248-149-249-151-251-155-255-
160-260-222000-
WEST CENTRAL FLORIDA

CITY           SKY/WX    TMP DP  RH WIND       PRES   REMARKS
CRYSTAL RIVER  FAIR      90  72  55 W7        30.04F HX  96
INVERNESS      MOCLDY    88  68  51 CALM      30.05F
BROOKSVILLE    PTSUNNY   87  71  58 W5        30.05F THUNDER
ZEPHYRHILLS    FAIR      90  70  51 S3        30.05F HX  95
CLEARWATER     RAIN      83  77  82 SE3       30.05F
TAMPA INTL     MOSUNNY   87  72  60 SW9       30.04F
TAMPA EXEC     PTSUNNY   90  72  55 CALM      30.05F HX  96
PLANT CITY     SUNNY     91  70  49 CALM      30.06F HX  97
MACDILL AFB    SUNNY     91  76  62 VRB5      30.05F HX 102
ST PETERSBURG  MOSUNNY   87  75  67 E5        30.03F HX  96
SARASOTA       MOSUNNY   90  74  59 W10       30.03F HX  99
VENICE         FAIR      86  75  70 W9        30.06R HX  95

STATION/POSITION SKY/WX   TEMP    WIND        PRES    WAVE   SWELL
                          AIR SEA DIR/SP/G            HT/PER HT/PER
                          (F)     (DEG/KT/KT) (MB)    (FT/S) (FT/S)
CEDAR KEY                  84     240/  7/  9 1018.1F
28.5N   84.5W              84 89  300/  2/  2 1018.0F   1/ 4
27.3N   84.3W                 89                N/A     1/ 4
CLEARWATER BEACH           84 88  280/  6/  8 1017.4F
MIDDLE TAMPA BAY           84     290/  8/  9 1017.9F
VENICE                     84 90  260/  8/  9 1017.3F

$$
FLZ066-069-070-075>078-162-262-165-265-222000-
SOUTHWEST FLORIDA AND KEYS

CITY           SKY/WX    TMP DP  RH WIND       PRES   REMARKS
PUNTA GORDA    PTSUNNY   86  75  69 S10       30.07R HX  95
FT MYERS       CLOUDY    77  74  90 SW8       30.07R
SOUTHWEST INTL CLOUDY    77  71  82 W8        30.07S
NAPLES         CLOUDY    78  77  96 W7        30.07F
MARATHON       CLOUDY    87  75  67 VRB5      30.05S HX  96
KEY WEST NAS   PTSUNNY   86  73  65 N3        30.05S
KEY WEST INTL  PTSUNNY   87  73  62 N5        30.05S

STATION/POSITION SKY/WX   TEMP    WIND        PRES    WAVE   SWELL
                          AIR SEA DIR/SP/G            HT/PER HT/PER
                          (F)     (DEG/KT/KT) (MB)    (FT/S) (FT/S)
VENICE                     84 90  260/  8/  9 1017.3F
NAPLES                     78 92  270/  6/ 10 1018.5F
DRY TORTUGAS               87      CALM  /  3 1017.6F
NW FL BAY                  82     140/  2/  3 1018.3F
SAND KEY                   84      CALM  /  1 1017.5F
SOMBRERO KEY               82      10/  1/  1 1018.4R
LONG KEY                   83 88   CALM  /  1 1018.4S
MOLASSES REEF              83 86   CALM  /  1 1017.6F

$$
FLZ067-068-071>074-168-172>174-222000-
SOUTHEAST FLORIDA

CITY           SKY/WX    TMP DP  RH WIND       PRES   REMARKS
W PALM BEACH   CLOUDY    87  75  67 SW8       30.04S HX  96
FT LAUDER-EXEC PTSUNNY   88  76  67 S7        30.05S HX  99
FT LAUDERDALE  PTSUNNY   89  75  63 S9        30.04F HX  99
POMPANO BEACH    N/A     89  75  63 S9        30.05F HX  99
PEMBROKE PINES PTSUNNY   88  75  65 S7        30.06S HX  97
OPA LOCKA      PTSUNNY   85  76  74 S5        30.06R
MIAMI          PTSUNNY   87  74  64 SW6       30.06S HX  95
HOMESTEAD      PTSUNNY   86  76  71 VRB1      30.06F HX  95

STATION/POSITION SKY/WX   TEMP    WIND        PRES    WAVE   SWELL
                          AIR SEA DIR/SP/G            HT/PER HT/PER
                          (F)     (DEG/KT/KT) (MB)    (FT/S) (FT/S)
PORT EVERGLADES            85     150/  8/ 11 1017.7
VIRGINIA KEY                      220/  8/ 10   N/A
LAKE WORTH                 83 85              1017.1F
FOWEY ROCKS                85 85  210/  8/  9 1018.1S
SETTLEMENT POINT           78     120/  6/  8 1019.4S

$$



USA.gov is the U.S. government's official web portal to all federal, state and local government web resources and services.